Data supplied by UK-AIR on 3/5/2024
All Data GMT hour ending 
Status: R =Ratified P=Provisional,P*=As supplied
,,Nottingham Western Boulevard,,,,,,,,,,,,,,,,,,,,,,,
Date,time,"PM<sub>10</sub> particulate matter (Hourly measured)",status,unit,"Nitric oxide",status,unit,"Nitrogen dioxide",status,unit,"Nitrogen oxides as nitrogen dioxide",status,unit
 
01-01-2024,01:00,19.324,P,ugm-3 (Ref.eq),3.09580,P,ugm-3,2.87768,P,ugm-3,7.62450,P,ugm-3
01-01-2024,02:00,5.797,P,ugm-3 (Ref.eq),4.83454,P,ugm-3,4.25595,P,ugm-3,11.66880,P,ugm-3
01-01-2024,03:00,6.763,P,ugm-3 (Ref.eq),2.25824,P,ugm-3,1.70882,P,ugm-3,5.17140,P,ugm-3
01-01-2024,04:00,6.763,P,ugm-3 (Ref.eq),1.59031,P,ugm-3,0.69424,P,ugm-3,3.13268,P,ugm-3
01-01-2024,05:00,5.797,P,ugm-3 (Ref.eq),1.46308,P,ugm-3,0.78986,P,ugm-3,3.03323,P,ugm-3
01-01-2024,06:00,3.865,P,ugm-3 (Ref.eq),1.74934,P,ugm-3,2.63829,P,ugm-3,5.32058,P,ugm-3
01-01-2024,07:00,2.899,P,ugm-3 (Ref.eq),2.25824,P,ugm-3,2.70332,P,ugm-3,6.16590,P,ugm-3
01-01-2024,08:00,4.831,P,ugm-3 (Ref.eq),2.63991,P,ugm-3,2.51589,P,ugm-3,6.56370,P,ugm-3
01-01-2024,09:00,7.730,P,ugm-3 (Ref.eq),2.67172,P,ugm-3,3.41190,P,ugm-3,7.50848,P,ugm-3
01-01-2024,10:00,9.662,P,ugm-3 (Ref.eq),5.08898,P,ugm-3,7.16423,P,ugm-3,14.96723,P,ugm-3
01-01-2024,11:00,15.459,P,ugm-3 (Ref.eq),7.28361,P,ugm-3,9.61701,P,ugm-3,20.78505,P,ugm-3
01-01-2024,12:00,11.594,P,ugm-3 (Ref.eq),9.66907,P,ugm-3,13.41810,P,ugm-3,28.24380,P,ugm-3
01-01-2024,13:00,15.459,P,ugm-3 (Ref.eq),14.43999,P,ugm-3,19.52854,P,ugm-3,41.66955,P,ugm-3
01-01-2024,14:00,20.290,P,ugm-3 (Ref.eq),16.63462,P,ugm-3,25.06427,P,ugm-3,50.57033,P,ugm-3
01-01-2024,15:00,21.256,P,ugm-3 (Ref.eq),10.71867,P,ugm-3,25.78146,P,ugm-3,42.21653,P,ugm-3
01-01-2024,16:00,22.223,P,ugm-3 (Ref.eq),33.17381,P,ugm-3,40.37957,P,ugm-3,91.24538,P,ugm-3
01-01-2024,17:00,20.290,P,ugm-3 (Ref.eq),5.82053,P,ugm-3,23.34684,P,ugm-3,32.27153,P,ugm-3
01-01-2024,18:00,11.594,P,ugm-3 (Ref.eq),5.12079,P,ugm-3,18.50248,P,ugm-3,26.35425,P,ugm-3
01-01-2024,19:00,11.594,P,ugm-3 (Ref.eq),2.67172,P,ugm-3,14.74920,P,ugm-3,18.84578,P,ugm-3
01-01-2024,20:00,7.730,P,ugm-3 (Ref.eq),1.84476,P,ugm-3,11.54194,P,ugm-3,14.37053,P,ugm-3
01-01-2024,21:00,6.763,P,ugm-3 (Ref.eq),2.22643,P,ugm-3,10.95671,P,ugm-3,14.37053,P,ugm-3
01-01-2024,22:00,4.831,P,ugm-3 (Ref.eq),2.09921,P,ugm-3,8.61581,P,ugm-3,11.83455,P,ugm-3
01-01-2024,23:00,0.000,P,ugm-3 (Ref.eq),2.19462,P,ugm-3,5.83408,P,ugm-3,9.19913,P,ugm-3
01-01-2024,24:00,0.966,P,ugm-3 (Ref.eq),3.21242,P,ugm-3,9.14653,P,ugm-3,14.07218,P,ugm-3
02-01-2024,01:00,3.865,P,ugm-3 (Ref.eq),3.47747,P,ugm-3,7.86165,P,ugm-3,13.19370,P,ugm-3
02-01-2024,02:00,4.831,P,ugm-3 (Ref.eq),1.35706,P,ugm-3,1.43310,P,ugm-3,3.51390,P,ugm-3
02-01-2024,03:00,5.797,P,ugm-3 (Ref.eq),1.30405,P,ugm-3,1.28233,P,ugm-3,3.28185,P,ugm-3
02-01-2024,04:00,7.730,P,ugm-3 (Ref.eq),2.29004,P,ugm-3,4.64355,P,ugm-3,8.15490,P,ugm-3
02-01-2024,05:00,7.730,P,ugm-3 (Ref.eq),5.37524,P,ugm-3,7.96843,P,ugm-3,16.21035,P,ugm-3
02-01-2024,06:00,13.527,P,ugm-3 (Ref.eq),7.98334,P,ugm-3,17.14652,P,ugm-3,29.38748,P,ugm-3
02-01-2024,07:00,15.459,P,ugm-3 (Ref.eq),12.81788,P,ugm-3,26.09319,P,ugm-3,45.74700,P,ugm-3
02-01-2024,08:00,11.594,P,ugm-3 (Ref.eq),13.89929,P,ugm-3,29.65618,P,ugm-3,50.96813,P,ugm-3
02-01-2024,09:00,17.392,P,ugm-3 (Ref.eq),21.65999,P,ugm-3,37.94496,P,ugm-3,71.15648,P,ugm-3
02-01-2024,10:00,23.189,P,ugm-3 (Ref.eq),30.21584,P,ugm-3,49.78811,P,ugm-3,96.11843,P,ugm-3
02-01-2024,11:00,14.493,P,ugm-3 (Ref.eq),35.52747,P,ugm-3,47.36211,P,ugm-3,101.83680,P,ugm-3
02-01-2024,12:00,14.493,P,ugm-3 (Ref.eq),13.58123,P,ugm-3,32.72957,P,ugm-3,53.55383,P,ugm-3
02-01-2024,13:00,7.730,P,ugm-3 (Ref.eq),6.48846,P,ugm-3,19.04085,P,ugm-3,28.98968,P,ugm-3
02-01-2024,14:00,4.831,P,ugm-3 (Ref.eq),13.67665,P,ugm-3,20.05256,P,ugm-3,41.02313,P,ugm-3
02-01-2024,15:00,4.831,P,ugm-3 (Ref.eq),20.51497,P,ugm-3,38.80558,P,ugm-3,70.26143,P,ugm-3
02-01-2024,16:00,7.730,P,ugm-3 (Ref.eq),13.70845,P,ugm-3,21.64472,P,ugm-3,42.66405,P,ugm-3
02-01-2024,17:00,5.797,P,ugm-3 (Ref.eq),14.18554,P,ugm-3,22.75301,P,ugm-3,44.50388,P,ugm-3
02-01-2024,18:00,7.730,P,ugm-3 (Ref.eq),14.15374,P,ugm-3,26.28253,P,ugm-3,47.98463,P,ugm-3
02-01-2024,19:00,9.662,P,ugm-3 (Ref.eq),15.52140,P,ugm-3,26.37338,P,ugm-3,50.17253,P,ugm-3
02-01-2024,20:00,13.527,P,ugm-3 (Ref.eq),15.23515,P,ugm-3,31.58589,P,ugm-3,54.94613,P,ugm-3
02-01-2024,21:00,11.594,P,ugm-3 (Ref.eq),15.10792,P,ugm-3,35.01309,P,ugm-3,58.17825,P,ugm-3
02-01-2024,22:00,12.561,P,ugm-3 (Ref.eq),10.36881,P,ugm-3,23.98084,P,ugm-3,39.87945,P,ugm-3
02-01-2024,23:00,9.662,P,ugm-3 (Ref.eq),6.23401,P,ugm-3,20.17688,P,ugm-3,29.73555,P,ugm-3
02-01-2024,24:00,6.763,P,ugm-3 (Ref.eq),3.33965,P,ugm-3,13.07863,P,ugm-3,18.19935,P,ugm-3
03-01-2024,01:00,7.730,P,ugm-3 (Ref.eq),2.98978,P,ugm-3,11.32774,P,ugm-3,15.91200,P,ugm-3
03-01-2024,02:00,8.696,P,ugm-3 (Ref.eq),6.14919,P,ugm-3,20.53897,P,ugm-3,29.96760,P,ugm-3
03-01-2024,03:00,7.730,P,ugm-3 (Ref.eq),6.04317,P,ugm-3,16.83956,P,ugm-3,26.10563,P,ugm-3
03-01-2024,04:00,11.594,P,ugm-3 (Ref.eq),6.10678,P,ugm-3,23.15655,P,ugm-3,32.52015,P,ugm-3
03-01-2024,05:00,8.696,P,ugm-3 (Ref.eq),13.86748,P,ugm-3,22.19648,P,ugm-3,43.45965,P,ugm-3
03-01-2024,06:00,7.730,P,ugm-3 (Ref.eq),21.91444,P,ugm-3,38.49958,P,ugm-3,72.10125,P,ugm-3
03-01-2024,07:00,6.763,P,ugm-3 (Ref.eq),27.63954,P,ugm-3,43.09723,P,ugm-3,85.47728,P,ugm-3
03-01-2024,08:00,9.662,P,ugm-3 (Ref.eq),22.99585,P,ugm-3,43.40514,P,ugm-3,78.66495,P,ugm-3
03-01-2024,09:00,10.628,P,ugm-3 (Ref.eq),26.55814,P,ugm-3,50.07594,P,ugm-3,90.79785,P,ugm-3
03-01-2024,10:00,10.628,P,ugm-3 (Ref.eq),14.98070,P,ugm-3,37.19717,P,ugm-3,60.16725,P,ugm-3
03-01-2024,11:00,14.493,P,ugm-3 (Ref.eq),36.99055,P,ugm-3,47.95307,P,ugm-3,104.67113,P,ugm-3
03-01-2024,12:00,12.561,P,ugm-3 (Ref.eq),27.32148,P,ugm-3,34.18689,P,ugm-3,76.07925,P,ugm-3
03-01-2024,13:00,13.527,P,ugm-3 (Ref.eq),23.79100,P,ugm-3,37.41233,P,ugm-3,73.89135,P,ugm-3
03-01-2024,14:00,16.425,P,ugm-3 (Ref.eq),30.34307,P,ugm-3,34.32746,P,ugm-3,80.85285,P,ugm-3
03-01-2024,15:00,9.662,P,ugm-3 (Ref.eq),24.71338,P,ugm-3,32.02003,P,ugm-3,69.91335,P,ugm-3
03-01-2024,16:00,10.628,P,ugm-3 (Ref.eq),31.83796,P,ugm-3,33.87516,P,ugm-3,82.69268,P,ugm-3
03-01-2024,17:00,14.493,P,ugm-3 (Ref.eq),50.95345,P,ugm-3,51.45581,P,ugm-3,129.58335,P,ugm-3
03-01-2024,18:00,21.256,P,ugm-3 (Ref.eq),54.13407,P,ugm-3,49.76134,P,ugm-3,132.76575,P,ugm-3
03-01-2024,19:00,23.189,P,ugm-3 (Ref.eq),60.33627,P,ugm-3,61.93153,P,ugm-3,154.44585,P,ugm-3
03-01-2024,20:00,16.425,P,ugm-3 (Ref.eq),29.67514,P,ugm-3,43.35733,P,ugm-3,88.85858,P,ugm-3
03-01-2024,21:00,11.594,P,ugm-3 (Ref.eq),19.17911,P,ugm-3,33.54429,P,ugm-3,62.95185,P,ugm-3
03-01-2024,22:00,14.493,P,ugm-3 (Ref.eq),28.62554,P,ugm-3,40.44173,P,ugm-3,84.33360,P,ugm-3
03-01-2024,23:00,14.493,P,ugm-3 (Ref.eq),28.53012,P,ugm-3,47.49981,P,ugm-3,91.24538,P,ugm-3
03-01-2024,24:00,10.628,P,ugm-3 (Ref.eq),18.09770,P,ugm-3,38.78263,P,ugm-3,66.53205,P,ugm-3
04-01-2024,01:00,9.662,P,ugm-3 (Ref.eq),23.09667,P,ugm-3,37.41360,P,ugm-3,72.82800,P,ugm-3
04-01-2024,02:00,10.628,P,ugm-3 (Ref.eq),18.34695,P,ugm-3,32.27280,P,ugm-3,60.40440,P,ugm-3
04-01-2024,03:00,9.662,P,ugm-3 (Ref.eq),5.44821,P,ugm-3,19.43865,P,ugm-3,27.79245,P,ugm-3
04-01-2024,04:00,9.662,P,ugm-3 (Ref.eq),3.28289,P,ugm-3,16.92180,P,ugm-3,21.95550,P,ugm-3
04-01-2024,05:00,6.763,P,ugm-3 (Ref.eq),8.66125,P,ugm-3,20.88450,P,ugm-3,34.16490,P,ugm-3
04-01-2024,06:00,11.594,P,ugm-3 (Ref.eq),18.26546,P,ugm-3,26.82855,P,ugm-3,54.83520,P,ugm-3
04-01-2024,07:00,12.561,P,ugm-3 (Ref.eq),37.47388,P,ugm-3,44.28585,P,ugm-3,101.74500,P,ugm-3
04-01-2024,08:00,19.324,P,ugm-3 (Ref.eq),145.94907,P,ugm-3,83.16315,P,ugm-3,306.94860,P,ugm-3
04-01-2024,09:00,16.425,P,ugm-3 (Ref.eq),145.32043,P,ugm-3,85.41225,P,ugm-3,308.23380,P,ugm-3
04-01-2024,10:00,,,,68.90584,P,ugm-3,59.33340,P,ugm-3,164.98755,P,ugm-3
04-01-2024,11:00,,,,,,,,,,,,
04-01-2024,12:00,21.256,P,ugm-3 (Ref.eq),41.10602,P,ugm-3,49.37310,P,ugm-3,112.40145,P,ugm-3
04-01-2024,13:00,23.189,P,ugm-3 (Ref.eq),30.97794,P,ugm-3,41.01930,P,ugm-3,88.51815,P,ugm-3
04-01-2024,14:00,27.054,P,ugm-3 (Ref.eq),40.47738,P,ugm-3,49.26600,P,ugm-3,111.33045,P,ugm-3
04-01-2024,15:00,28.020,P,ugm-3 (Ref.eq),50.60546,P,ugm-3,60.19020,P,ugm-3,137.78415,P,ugm-3
04-01-2024,16:00,53.141,P,ugm-3 (Ref.eq),135.78607,P,ugm-3,73.09575,P,ugm-3,281.29815,P,ugm-3
04-01-2024,17:00,69.566,P,ugm-3 (Ref.eq),189.98874,P,ugm-3,90.07110,P,ugm-3,381.38310,P,ugm-3
04-01-2024,18:00,62.803,P,ugm-3 (Ref.eq),243.00398,P,ugm-3,78.12945,P,ugm-3,450.73035,P,ugm-3
04-01-2024,19:00,51.209,P,ugm-3 (Ref.eq),141.86291,P,ugm-3,67.47300,P,ugm-3,284.99310,P,ugm-3
04-01-2024,20:00,45.411,P,ugm-3 (Ref.eq),99.98856,P,ugm-3,49.21245,P,ugm-3,202.52610,P,ugm-3
04-01-2024,21:00,40.580,P,ugm-3 (Ref.eq),58.39360,P,ugm-3,47.92725,P,ugm-3,137.46285,P,ugm-3
04-01-2024,22:00,33.817,P,ugm-3 (Ref.eq),32.47969,P,ugm-3,43.32195,P,ugm-3,93.12345,P,ugm-3
04-01-2024,23:00,30.918,P,ugm-3 (Ref.eq),18.44008,P,ugm-3,41.23350,P,ugm-3,69.50790,P,ugm-3
04-01-2024,24:00,33.817,P,ugm-3 (Ref.eq),9.74391,P,ugm-3,39.35925,P,ugm-3,54.29970,P,ugm-3
05-01-2024,01:00,32.851,P,ugm-3 (Ref.eq),9.35974,P,ugm-3,43.75035,P,ugm-3,58.10175,P,ugm-3
05-01-2024,02:00,29.952,P,ugm-3 (Ref.eq),5.12225,P,ugm-3,42.48300,P,ugm-3,50.33700,P,ugm-3
05-01-2024,03:00,31.885,P,ugm-3 (Ref.eq),4.43540,P,ugm-3,40.37670,P,ugm-3,47.17755,P,ugm-3
05-01-2024,04:00,26.087,P,ugm-3 (Ref.eq),5.30851,P,ugm-3,24.04395,P,ugm-3,32.18355,P,ugm-3
05-01-2024,05:00,20.290,P,ugm-3 (Ref.eq),9.18512,P,ugm-3,23.13360,P,ugm-3,37.21725,P,ugm-3
05-01-2024,06:00,12.561,P,ugm-3 (Ref.eq),16.03030,P,ugm-3,19.38510,P,ugm-3,43.96455,P,ugm-3
05-01-2024,07:00,21.256,P,ugm-3 (Ref.eq),29.16187,P,ugm-3,33.25455,P,ugm-3,77.96880,P,ugm-3
05-01-2024,08:00,23.189,P,ugm-3 (Ref.eq),49.48788,P,ugm-3,45.51750,P,ugm-3,121.39785,P,ugm-3
05-01-2024,09:00,28.986,P,ugm-3 (Ref.eq),75.26208,P,ugm-3,58.42305,P,ugm-3,173.82330,P,ugm-3
05-01-2024,10:00,42.513,P,ugm-3 (Ref.eq),63.24809,P,ugm-3,56.33460,P,ugm-3,153.31365,P,ugm-3
05-01-2024,11:00,36.716,P,ugm-3 (Ref.eq),45.50649,P,ugm-3,45.73170,P,ugm-3,115.50735,P,ugm-3
05-01-2024,12:00,31.885,P,ugm-3 (Ref.eq),39.35980,P,ugm-3,38.39535,P,ugm-3,98.74620,P,ugm-3
05-01-2024,13:00,28.986,P,ugm-3 (Ref.eq),43.09671,P,ugm-3,41.07285,P,ugm-3,107.15355,P,ugm-3
05-01-2024,14:00,25.121,P,ugm-3 (Ref.eq),50.01174,P,ugm-3,43.21485,P,ugm-3,119.89845,P,ugm-3
05-01-2024,15:00,30.918,P,ugm-3 (Ref.eq),47.77658,P,ugm-3,46.21365,P,ugm-3,119.47005,P,ugm-3
05-01-2024,16:00,34.783,P,ugm-3 (Ref.eq),78.78945,P,ugm-3,54.67455,P,ugm-3,175.48335,P,ugm-3
05-01-2024,17:00,39.614,P,ugm-3 (Ref.eq),99.77901,P,ugm-3,81.44955,P,ugm-3,234.44190,P,ugm-3
05-01-2024,18:00,35.749,P,ugm-3 (Ref.eq),112.10732,P,ugm-3,68.86530,P,ugm-3,240.76080,P,ugm-3
05-01-2024,19:00,52.175,P,ugm-3 (Ref.eq),87.79994,P,ugm-3,62.38575,P,ugm-3,197.01045,P,ugm-3
05-01-2024,20:00,47.344,P,ugm-3 (Ref.eq),103.51592,P,ugm-3,64.09935,P,ugm-3,222.82155,P,ugm-3
05-01-2024,21:00,37.682,P,ugm-3 (Ref.eq),85.21554,P,ugm-3,56.44170,P,ugm-3,187.10370,P,ugm-3
05-01-2024,22:00,45.411,P,ugm-3 (Ref.eq),92.44489,P,ugm-3,49.69440,P,ugm-3,191.44125,P,ugm-3
05-01-2024,23:00,45.411,P,ugm-3 (Ref.eq),34.99425,P,ugm-3,45.24975,P,ugm-3,98.90685,P,ugm-3
05-01-2024,24:00,23.189,P,ugm-3 (Ref.eq),19.06872,P,ugm-3,37.48500,P,ugm-3,66.72330,P,ugm-3
06-01-2024,01:00,24.155,P,ugm-3 (Ref.eq),26.54254,P,ugm-3,35.23590,P,ugm-3,75.93390,P,ugm-3
06-01-2024,02:00,27.054,P,ugm-3 (Ref.eq),12.47965,P,ugm-3,30.98760,P,ugm-3,50.12280,P,ugm-3
06-01-2024,03:00,19.324,P,ugm-3 (Ref.eq),5.27358,P,ugm-3,15.36885,P,ugm-3,23.45490,P,ugm-3
06-01-2024,04:00,16.425,P,ugm-3 (Ref.eq),3.42259,P,ugm-3,11.88810,P,ugm-3,17.13600,P,ugm-3
06-01-2024,05:00,17.392,P,ugm-3 (Ref.eq),7.01980,P,ugm-3,13.28040,P,ugm-3,24.04395,P,ugm-3
06-01-2024,06:00,16.425,P,ugm-3 (Ref.eq),18.50993,P,ugm-3,18.74250,P,ugm-3,47.12400,P,ugm-3
06-01-2024,07:00,12.561,P,ugm-3 (Ref.eq),17.49712,P,ugm-3,20.83095,P,ugm-3,47.65950,P,ugm-3
06-01-2024,08:00,9.662,P,ugm-3 (Ref.eq),20.64032,P,ugm-3,21.25935,P,ugm-3,52.90740,P,ugm-3
06-01-2024,09:00,9.662,P,ugm-3 (Ref.eq),20.84987,P,ugm-3,27.79245,P,ugm-3,59.76180,P,ugm-3
06-01-2024,10:00,10.628,P,ugm-3 (Ref.eq),37.99775,P,ugm-3,31.96935,P,ugm-3,90.23175,P,ugm-3
06-01-2024,11:00,11.594,P,ugm-3 (Ref.eq),29.30157,P,ugm-3,22.91940,P,ugm-3,67.84785,P,ugm-3
06-01-2024,12:00,14.493,P,ugm-3 (Ref.eq),28.46339,P,ugm-3,25.81110,P,ugm-3,69.45435,P,ugm-3
06-01-2024,13:00,24.155,P,ugm-3 (Ref.eq),24.72648,P,ugm-3,30.04155,P,ugm-3,67.95495,P,ugm-3
06-01-2024,14:00,21.256,P,ugm-3 (Ref.eq),36.74047,P,ugm-3,29.66670,P,ugm-3,86.00130,P,ugm-3
06-01-2024,15:00,24.155,P,ugm-3 (Ref.eq),34.05129,P,ugm-3,37.59210,P,ugm-3,89.80335,P,ugm-3
06-01-2024,16:00,22.223,P,ugm-3 (Ref.eq),29.96514,P,ugm-3,35.28945,P,ugm-3,81.23535,P,ugm-3
06-01-2024,17:00,24.155,P,ugm-3 (Ref.eq),41.21079,P,ugm-3,49.80150,P,ugm-3,112.99050,P,ugm-3
06-01-2024,18:00,35.749,P,ugm-3 (Ref.eq),51.19917,P,ugm-3,58.15530,P,ugm-3,136.65960,P,ugm-3
06-01-2024,19:00,33.817,P,ugm-3 (Ref.eq),41.80451,P,ugm-3,52.58610,P,ugm-3,116.68545,P,ugm-3
06-01-2024,20:00,26.087,P,ugm-3 (Ref.eq),23.64382,P,ugm-3,34.96815,P,ugm-3,71.22150,P,ugm-3
06-01-2024,21:00,22.223,P,ugm-3 (Ref.eq),16.13507,P,ugm-3,24.74010,P,ugm-3,49.48020,P,ugm-3
06-01-2024,22:00,25.121,P,ugm-3 (Ref.eq),17.07803,P,ugm-3,33.25455,P,ugm-3,59.44050,P,ugm-3
06-01-2024,23:00,16.425,P,ugm-3 (Ref.eq),8.94065,P,ugm-3,18.15345,P,ugm-3,31.86225,P,ugm-3
06-01-2024,24:00,15.459,P,ugm-3 (Ref.eq),7.47382,P,ugm-3,12.63780,P,ugm-3,24.09750,P,ugm-3
07-01-2024,01:00,13.527,P,ugm-3 (Ref.eq),5.91387,P,ugm-3,9.13920,P,ugm-3,18.20700,P,ugm-3
07-01-2024,02:00,14.493,P,ugm-3 (Ref.eq),4.14436,P,ugm-3,7.49700,P,ugm-3,13.85160,P,ugm-3
07-01-2024,03:00,12.561,P,ugm-3 (Ref.eq),3.94646,P,ugm-3,6.80085,P,ugm-3,12.85200,P,ugm-3
07-01-2024,04:00,15.459,P,ugm-3 (Ref.eq),2.75903,P,ugm-3,5.56920,P,ugm-3,9.79965,P,ugm-3
07-01-2024,05:00,15.459,P,ugm-3 (Ref.eq),3.14320,P,ugm-3,2.40975,P,ugm-3,7.22925,P,ugm-3
07-01-2024,06:00,15.459,P,ugm-3 (Ref.eq),7.54367,P,ugm-3,5.94405,P,ugm-3,17.51085,P,ugm-3
07-01-2024,07:00,9.662,P,ugm-3 (Ref.eq),6.18162,P,ugm-3,7.12215,P,ugm-3,16.60050,P,ugm-3
07-01-2024,08:00,18.358,P,ugm-3 (Ref.eq),8.24216,P,ugm-3,10.54935,P,ugm-3,23.18715,P,ugm-3
07-01-2024,09:00,5.797,P,ugm-3 (Ref.eq),10.02330,P,ugm-3,14.51205,P,ugm-3,29.88090,P,ugm-3
07-01-2024,10:00,16.425,P,ugm-3 (Ref.eq),20.95464,P,ugm-3,28.64925,P,ugm-3,60.77925,P,ugm-3
07-01-2024,11:00,26.087,P,ugm-3 (Ref.eq),22.14207,P,ugm-3,29.23830,P,ugm-3,63.18900,P,ugm-3
07-01-2024,12:00,28.020,P,ugm-3 (Ref.eq),27.27596,P,ugm-3,29.50605,P,ugm-3,71.32860,P,ugm-3
07-01-2024,13:00,22.223,P,ugm-3 (Ref.eq),15.68106,P,ugm-3,20.67030,P,ugm-3,44.71425,P,ugm-3
07-01-2024,14:00,21.256,P,ugm-3 (Ref.eq),19.27827,P,ugm-3,27.84600,P,ugm-3,57.40560,P,ugm-3
07-01-2024,15:00,16.425,P,ugm-3 (Ref.eq),10.12808,P,ugm-3,17.61795,P,ugm-3,33.14745,P,ugm-3
07-01-2024,16:00,30.918,P,ugm-3 (Ref.eq),17.35743,P,ugm-3,25.91820,P,ugm-3,52.53255,P,ugm-3
07-01-2024,17:00,29.952,P,ugm-3 (Ref.eq),20.04661,P,ugm-3,27.09630,P,ugm-3,57.83400,P,ugm-3
07-01-2024,18:00,25.121,P,ugm-3 (Ref.eq),8.90572,P,ugm-3,26.61435,P,ugm-3,40.26960,P,ugm-3
07-01-2024,19:00,36.716,P,ugm-3 (Ref.eq),40.93140,P,ugm-3,49.58730,P,ugm-3,112.34790,P,ugm-3
07-01-2024,20:00,33.817,P,ugm-3 (Ref.eq),62.82900,P,ugm-3,74.59515,P,ugm-3,170.93160,P,ugm-3
07-01-2024,21:00,42.513,P,ugm-3 (Ref.eq),74.70329,P,ugm-3,74.64870,P,ugm-3,189.19215,P,ugm-3
07-01-2024,22:00,29.952,P,ugm-3 (Ref.eq),37.01986,P,ugm-3,58.90500,P,ugm-3,115.66800,P,ugm-3
07-01-2024,23:00,23.189,P,ugm-3 (Ref.eq),16.44939,P,ugm-3,51.14025,P,ugm-3,76.36230,P,ugm-3
07-01-2024,24:00,21.256,P,ugm-3 (Ref.eq),13.23635,P,ugm-3,45.41040,P,ugm-3,65.70585,P,ugm-3
08-01-2024,01:00,20.290,P,ugm-3 (Ref.eq),8.66125,P,ugm-3,32.87970,P,ugm-3,46.16010,P,ugm-3
08-01-2024,02:00,15.459,P,ugm-3 (Ref.eq),6.23983,P,ugm-3,28.13160,P,ugm-3,37.69920,P,ugm-3
08-01-2024,03:00,16.425,P,ugm-3 (Ref.eq),6.00700,P,ugm-3,21.63420,P,ugm-3,30.84480,P,ugm-3
08-01-2024,04:00,14.493,P,ugm-3 (Ref.eq),5.23866,P,ugm-3,15.20820,P,ugm-3,23.24070,P,ugm-3
08-01-2024,05:00,14.493,P,ugm-3 (Ref.eq),7.99769,P,ugm-3,18.84960,P,ugm-3,31.11255,P,ugm-3
08-01-2024,06:00,21.256,P,ugm-3 (Ref.eq),23.50412,P,ugm-3,30.41640,P,ugm-3,66.45555,P,ugm-3
08-01-2024,07:00,22.223,P,ugm-3 (Ref.eq),38.73116,P,ugm-3,52.05060,P,ugm-3,111.43755,P,ugm-3
08-01-2024,08:00,23.189,P,ugm-3 (Ref.eq),92.23534,P,ugm-3,77.80815,P,ugm-3,219.23370,P,ugm-3
08-01-2024,09:00,19.324,P,ugm-3 (Ref.eq),75.71610,P,ugm-3,61.15410,P,ugm-3,177.25050,P,ugm-3
08-01-2024,10:00,30.918,P,ugm-3 (Ref.eq),29.72066,P,ugm-3,40.59090,P,ugm-3,86.16195,P,ugm-3
08-01-2024,11:00,36.716,P,ugm-3 (Ref.eq),26.99656,P,ugm-3,37.21725,P,ugm-3,78.61140,P,ugm-3
08-01-2024,12:00,28.986,P,ugm-3 (Ref.eq),19.59259,P,ugm-3,31.43385,P,ugm-3,61.47540,P,ugm-3
08-01-2024,13:00,30.918,P,ugm-3 (Ref.eq),20.25615,P,ugm-3,30.68415,P,ugm-3,61.74315,P,ugm-3
08-01-2024,14:00,25.121,P,ugm-3 (Ref.eq),11.87430,P,ugm-3,19.11735,P,ugm-3,37.32435,P,ugm-3
08-01-2024,15:00,27.054,P,ugm-3 (Ref.eq),14.63332,P,ugm-3,24.63300,P,ugm-3,47.07045,P,ugm-3
08-01-2024,16:00,24.155,P,ugm-3 (Ref.eq),19.73229,P,ugm-3,24.31170,P,ugm-3,54.56745,P,ugm-3
08-01-2024,17:00,18.358,P,ugm-3 (Ref.eq),18.05592,P,ugm-3,24.74010,P,ugm-3,52.42545,P,ugm-3
08-01-2024,18:00,22.223,P,ugm-3 (Ref.eq),17.18281,P,ugm-3,22.75875,P,ugm-3,49.10535,P,ugm-3
08-01-2024,19:00,30.918,P,ugm-3 (Ref.eq),15.47151,P,ugm-3,24.09750,P,ugm-3,47.82015,P,ugm-3
08-01-2024,20:00,28.020,P,ugm-3 (Ref.eq),9.53436,P,ugm-3,11.51325,P,ugm-3,26.13240,P,ugm-3
08-01-2024,21:00,17.392,P,ugm-3 (Ref.eq),4.05123,P,ugm-3,4.65885,P,ugm-3,10.87065,P,ugm-3
08-01-2024,22:00,18.358,P,ugm-3 (Ref.eq),3.42259,P,ugm-3,5.40855,P,ugm-3,10.65645,P,ugm-3
08-01-2024,23:00,15.459,P,ugm-3 (Ref.eq),2.47963,P,ugm-3,1.98135,P,ugm-3,5.78340,P,ugm-3
08-01-2024,24:00,16.425,P,ugm-3 (Ref.eq),1.60652,P,ugm-3,0.37485,P,ugm-3,2.83815,P,ugm-3
09-01-2024,01:00,14.493,P,ugm-3 (Ref.eq),1.62981,P,ugm-3,0.14280,P,ugm-3,2.64180,P,ugm-3
09-01-2024,02:00,17.392,P,ugm-3 (Ref.eq),1.44354,P,ugm-3,-0.21420,P,ugm-3,1.99920,P,ugm-3
09-01-2024,03:00,18.358,P,ugm-3 (Ref.eq),1.60652,P,ugm-3,-0.74970,P,ugm-3,1.71360,P,ugm-3
09-01-2024,04:00,17.392,P,ugm-3 (Ref.eq),1.57160,P,ugm-3,-0.53550,P,ugm-3,1.87425,P,ugm-3
09-01-2024,05:00,14.493,P,ugm-3 (Ref.eq),3.35274,P,ugm-3,2.08845,P,ugm-3,7.22925,P,ugm-3
09-01-2024,06:00,18.358,P,ugm-3 (Ref.eq),9.91853,P,ugm-3,11.08485,P,ugm-3,26.29305,P,ugm-3
09-01-2024,07:00,22.223,P,ugm-3 (Ref.eq),16.55417,P,ugm-3,22.43745,P,ugm-3,47.82015,P,ugm-3
09-01-2024,08:00,19.324,P,ugm-3 (Ref.eq),40.96632,P,ugm-3,46.16010,P,ugm-3,108.97425,P,ugm-3
09-01-2024,09:00,22.223,P,ugm-3 (Ref.eq),20.22123,P,ugm-3,28.75635,P,ugm-3,59.76180,P,ugm-3
09-01-2024,10:00,19.324,P,ugm-3 (Ref.eq),16.17000,P,ugm-3,26.13240,P,ugm-3,50.92605,P,ugm-3
09-01-2024,11:00,24.155,P,ugm-3 (Ref.eq),11.69967,P,ugm-3,14.51205,P,ugm-3,32.45130,P,ugm-3
09-01-2024,12:00,21.256,P,ugm-3 (Ref.eq),8.10246,P,ugm-3,8.13960,P,ugm-3,20.56320,P,ugm-3
09-01-2024,13:00,19.324,P,ugm-3 (Ref.eq),4.71479,P,ugm-3,6.05115,P,ugm-3,13.28040,P,ugm-3
09-01-2024,14:00,18.358,P,ugm-3 (Ref.eq),6.28639,P,ugm-3,5.40855,P,ugm-3,15.04755,P,ugm-3
09-01-2024,15:00,16.425,P,ugm-3 (Ref.eq),5.93715,P,ugm-3,10.06740,P,ugm-3,19.17090,P,ugm-3
09-01-2024,16:00,26.087,P,ugm-3 (Ref.eq),10.30270,P,ugm-3,16.54695,P,ugm-3,32.34420,P,ugm-3
09-01-2024,17:00,29.952,P,ugm-3 (Ref.eq),16.55417,P,ugm-3,32.23710,P,ugm-3,57.61980,P,ugm-3
09-01-2024,18:00,28.986,P,ugm-3 (Ref.eq),29.05710,P,ugm-3,43.26840,P,ugm-3,87.82200,P,ugm-3
09-01-2024,19:00,21.256,P,ugm-3 (Ref.eq),24.97095,P,ugm-3,31.32675,P,ugm-3,69.61500,P,ugm-3
09-01-2024,20:00,22.223,P,ugm-3 (Ref.eq),16.58909,P,ugm-3,29.34540,P,ugm-3,54.78165,P,ugm-3
09-01-2024,21:00,19.324,P,ugm-3 (Ref.eq),11.94415,P,ugm-3,20.83095,P,ugm-3,39.14505,P,ugm-3
09-01-2024,22:00,11.594,P,ugm-3 (Ref.eq),11.17581,P,ugm-3,23.77620,P,ugm-3,40.91220,P,ugm-3
09-01-2024,23:00,13.527,P,ugm-3 (Ref.eq),9.53436,P,ugm-3,19.43865,P,ugm-3,34.05780,P,ugm-3
09-01-2024,24:00,11.594,P,ugm-3 (Ref.eq),5.09896,P,ugm-3,10.06740,P,ugm-3,17.88570,P,ugm-3
10-01-2024,01:00,15.459,P,ugm-3 (Ref.eq),3.21305,P,ugm-3,4.71240,P,ugm-3,9.63900,P,ugm-3
10-01-2024,02:00,14.493,P,ugm-3 (Ref.eq),2.14203,P,ugm-3,1.85640,P,ugm-3,5.14080,P,ugm-3
10-01-2024,03:00,10.628,P,ugm-3 (Ref.eq),2.89873,P,ugm-3,2.83815,P,ugm-3,7.28280,P,ugm-3
10-01-2024,04:00,8.696,P,ugm-3 (Ref.eq),2.47963,P,ugm-3,-0.32130,P,ugm-3,3.48075,P,ugm-3
10-01-2024,05:00,8.696,P,ugm-3 (Ref.eq),7.40397,P,ugm-3,7.60410,P,ugm-3,18.95670,P,ugm-3
10-01-2024,06:00,7.730,P,ugm-3 (Ref.eq),13.30620,P,ugm-3,13.38750,P,ugm-3,33.79005,P,ugm-3
10-01-2024,07:00,10.628,P,ugm-3 (Ref.eq),26.57747,P,ugm-3,29.45250,P,ugm-3,70.20405,P,ugm-3
10-01-2024,08:00,13.527,P,ugm-3 (Ref.eq),41.94420,P,ugm-3,47.07045,P,ugm-3,111.38400,P,ugm-3
10-01-2024,09:00,16.425,P,ugm-3 (Ref.eq),65.13401,P,ugm-3,50.71185,P,ugm-3,150.58260,P,ugm-3
10-01-2024,10:00,13.527,P,ugm-3 (Ref.eq),46.23991,P,ugm-3,40.91220,P,ugm-3,111.81240,P,ugm-3
10-01-2024,11:00,13.527,P,ugm-3 (Ref.eq),32.96863,P,ugm-3,32.50485,P,ugm-3,83.05605,P,ugm-3
10-01-2024,12:00,11.594,P,ugm-3 (Ref.eq),29.58097,P,ugm-3,32.23710,P,ugm-3,77.59395,P,ugm-3
10-01-2024,13:00,8.696,P,ugm-3 (Ref.eq),22.42147,P,ugm-3,30.20220,P,ugm-3,64.58130,P,ugm-3
10-01-2024,14:00,10.628,P,ugm-3 (Ref.eq),29.19680,P,ugm-3,30.41640,P,ugm-3,75.18420,P,ugm-3
10-01-2024,15:00,15.459,P,ugm-3 (Ref.eq),29.30157,P,ugm-3,39.35925,P,ugm-3,84.28770,P,ugm-3
10-01-2024,16:00,12.561,P,ugm-3 (Ref.eq),34.88948,P,ugm-3,30.30930,P,ugm-3,83.80575,P,ugm-3
10-01-2024,17:00,8.696,P,ugm-3 (Ref.eq),20.01168,P,ugm-3,31.80870,P,ugm-3,62.49285,P,ugm-3
10-01-2024,18:00,9.662,P,ugm-3 (Ref.eq),26.75209,P,ugm-3,33.84360,P,ugm-3,74.86290,P,ugm-3
10-01-2024,19:00,16.425,P,ugm-3 (Ref.eq),19.34812,P,ugm-3,35.98560,P,ugm-3,65.65230,P,ugm-3
10-01-2024,20:00,7.730,P,ugm-3 (Ref.eq),12.74741,P,ugm-3,26.13240,P,ugm-3,45.67815,P,ugm-3
10-01-2024,21:00,6.763,P,ugm-3 (Ref.eq),9.11527,P,ugm-3,20.45610,P,ugm-3,34.43265,P,ugm-3
10-01-2024,22:00,6.763,P,ugm-3 (Ref.eq),6.60071,P,ugm-3,14.99400,P,ugm-3,25.11495,P,ugm-3
10-01-2024,23:00,8.696,P,ugm-3 (Ref.eq),5.37836,P,ugm-3,17.24310,P,ugm-3,25.48980,P,ugm-3
10-01-2024,24:00,7.730,P,ugm-3 (Ref.eq),8.13739,P,ugm-3,13.28040,P,ugm-3,25.75755,P,ugm-3
11-01-2024,01:00,3.865,P,ugm-3 (Ref.eq),3.42259,P,ugm-3,3.64140,P,ugm-3,8.88930,P,ugm-3
11-01-2024,02:00,5.797,P,ugm-3 (Ref.eq),1.90920,P,ugm-3,1.64220,P,ugm-3,4.56960,P,ugm-3
11-01-2024,03:00,7.730,P,ugm-3 (Ref.eq),2.02562,P,ugm-3,1.39230,P,ugm-3,4.49820,P,ugm-3
11-01-2024,04:00,4.831,P,ugm-3 (Ref.eq),1.92084,P,ugm-3,1.60650,P,ugm-3,4.55175,P,ugm-3
11-01-2024,05:00,10.628,P,ugm-3 (Ref.eq),5.30851,P,ugm-3,5.24790,P,ugm-3,13.38750,P,ugm-3
11-01-2024,06:00,10.628,P,ugm-3 (Ref.eq),8.80095,P,ugm-3,9.90675,P,ugm-3,23.40135,P,ugm-3
11-01-2024,07:00,17.392,P,ugm-3 (Ref.eq),26.36792,P,ugm-3,38.07405,P,ugm-3,78.50430,P,ugm-3
11-01-2024,08:00,14.493,P,ugm-3 (Ref.eq),54.44714,P,ugm-3,52.05060,P,ugm-3,135.53505,P,ugm-3
11-01-2024,09:00,15.459,P,ugm-3 (Ref.eq),56.29813,P,ugm-3,40.80510,P,ugm-3,127.12770,P,ugm-3
11-01-2024,10:00,18.358,P,ugm-3 (Ref.eq),43.02686,P,ugm-3,49.80150,P,ugm-3,115.77510,P,ugm-3
11-01-2024,11:00,16.425,P,ugm-3 (Ref.eq),25.98375,P,ugm-3,32.29065,P,ugm-3,72.13185,P,ugm-3
11-01-2024,12:00,10.628,P,ugm-3 (Ref.eq),27.93952,P,ugm-3,30.52350,P,ugm-3,73.36350,P,ugm-3
11-01-2024,13:00,15.459,P,ugm-3 (Ref.eq),30.06991,P,ugm-3,35.02170,P,ugm-3,81.12825,P,ugm-3
11-01-2024,14:00,12.561,P,ugm-3 (Ref.eq),26.92671,P,ugm-3,32.55840,P,ugm-3,73.84545,P,ugm-3
11-01-2024,15:00,19.324,P,ugm-3 (Ref.eq),27.10133,P,ugm-3,31.70160,P,ugm-3,73.25640,P,ugm-3
11-01-2024,16:00,19.324,P,ugm-3 (Ref.eq),38.24222,P,ugm-3,43.58970,P,ugm-3,102.22695,P,ugm-3
11-01-2024,17:00,23.189,P,ugm-3 (Ref.eq),54.06297,P,ugm-3,63.61740,P,ugm-3,146.51280,P,ugm-3
11-01-2024,18:00,19.324,P,ugm-3 (Ref.eq),47.84643,P,ugm-3,41.07285,P,ugm-3,114.43635,P,ugm-3
11-01-2024,19:00,15.459,P,ugm-3 (Ref.eq),17.49712,P,ugm-3,24.57945,P,ugm-3,51.40800,P,ugm-3